Hourly Data Report for October 11, 2016

All times are specified in Local Standard Time (LST). Add 1 hour to adjust for Daylight Saving Time where and when it is observed.

PANGNIRTUNG
NUNAVUT

66°08'36.300" N
65°42'40.500" W
22.60 m
2403049
71826
WXP

Download Data

Hourly Data (October 2016)
Hourly Data Report for October 11, 2016
Temp Definition
°C
Dew Point Temp Definition
°C
Rel Hum Definition
%
Wind Dir Definition
10's deg

Wind Spd Definition
km/h
Visibility Definition
km
Stn Press Definition
kPa
Hmdx Definition


Wind Chill Definition


Weather Definition


TIME
00:00 -2.3 -4.7 84 17 2   101.23   -3 LegendNANA
01:00 -2.9 -4.9 86 23 2   101.23   -4 LegendNANA
02:00 -2.6 -4.2 89 23 6   101.25   -5 LegendNANA
03:00 -2.6 -3.8 91 6 7   101.23   -5 LegendNANA
04:00 -2.8 -3.5 95 8 7   101.20   -6 LegendNANA
05:00 -2.9 -3.3 98 10 4   101.18   -4 LegendNANA
06:00 -3.0 -3.4 97 9 2   101.15   -4 LegendNANA
07:00 -2.8 -3.3 97   0   101.16     LegendNANA
08:00 -2.6 -3.4 94 8 4   101.15   -4 LegendNANA
09:00 -2.6 -3.2 96 11 4   101.11   -4 LegendNANA
10:00 -2.1 -2.9 94 13 1   101.09   -2 LegendNANA
11:00 -2.2 -3.0 94 12 3   101.08   -3 LegendNANA
12:00 -2.0 -3.1 92 0 1   101.04   -2 LegendNANA
13:00 -1.5 -3.3 88   0   101.02     LegendNANA
14:00 -1.9 -3.1 91 0 1   101.00   -2 LegendNANA
15:00 -2.2 -3.3 92 21 3   100.97   -3 LegendNANA
16:00 -2.4 -4.5 85 21 2   100.94   -3 LegendNANA
17:00 -2.5 -4.5 86 10 2   100.95   -3 LegendNANA
18:00 -2.8 -5.1 85 22 3   100.92   -4 LegendNANA
19:00 -2.3 -4.9 83 22 2   100.91   -3 LegendNANA
20:00 -2.8 -5.3 83 23 3   100.89   -4 LegendNANA
21:00 -3.0 -4.6 89 12 5   100.87   -5 LegendNANA
22:00 -3.0 -5.2 85 0 1   100.85   -3 LegendNANA
23:00 -3.2 -5.5 84 14 1   100.84   -4 LegendNANA

Notes on Data Quality.

Legend

  • E = Estimated
  • M = Missing
  • NA = Not Available
  • ‡ = Partner data that is not subject to review by the National Climate Archives
Date modified: